This demonstration page uses our WeatherBlox Daily Observations layout. Learn more.

Left ArrowRight Arrow

34.16533, -84.80231

Hourly Observations for September 27, 2017

Temp ( °F °C ) Dew Point ( °F °C ) Humidity (%) Winds ( mph kmh ) Pressure ( in mb ) Visibility ( mi km ) Precip ( " mm )
12:53 am 00:53 Clear 64 17.8 64 17.8 100 100 Calm 29.94 1014 9 14 0.00 0.00
1:53 am 01:53 Clear 63 17.2 63 17.2 100 100 Calm 29.93 1014 7 11 0.00 0.00
2:53 am 02:53 Clear 63 17.2 63 17.2 100 100 Calm 29.93 1014 7 11 0.00 0.00
3:53 am 03:53 Clear 62 16.7 62 16.7 100 100 Calm 29.93 1014 8 13 0.00 0.00
4:53 am 04:53 Clear 62 16.7 62 16.7 100 100 Calm 29.93 1014 8 13 0.00 0.00
5:53 am 05:53 Clear 62 16.7 62 16.7 100 100 Calm 29.93 1014 8 13 0.00 0.00
6:53 am 06:53 Clear 62 16.7 62 16.7 100 100 Calm 29.94 1014 8 13 0.00 0.00
7:53 am 07:53 Sunny 61 16.1 61 16.1 100 100 Calm 29.95 1014 8 13 0.00 0.00
8:53 am 08:53 Sunny 66 18.9 66 18.9 100 100 Calm 29.96 1015 10 16 0.00 0.00
9:53 am 09:53 Sunny 71 21.7 67 19.4 87 87 Calm 29.97 1015 10 16 0.00 0.00
10:53 am 10:53 Sunny 76 24.4 67 19.4 74 74 Calm 29.96 1015 10 16 0.00 0.00
11:53 am 11:53 Sunny 80 26.7 68 20 67 67 SSW 5 7 29.96 1015 10 16 0.00 0.00
12:53 pm 12:53 Sunny 85 29.4 66 18.9 53 53 Calm 29.94 1014 10 16 0.00 0.00
1:53 pm 13:53 Sunny 88 31.1 66 18.9 48 48 VRB 3 6 29.93 1013 10 16 0.00 0.00
2:53 pm 14:53 Sunny 88 31.1 63 17.2 43 43 N 3 6 29.91 1013 10 16 0.00 0.00
3:53 pm 15:53 Sunny 90 32.2 64 17.8 42 42 NNW 5 7 29.90 1012 10 16 0.00 0.00
4:53 pm 16:53 Sunny 89 31.7 64 17.8 43 43 VRB 3 6 29.89 1012 10 16 0.00 0.00
5:53 pm 17:53 Sunny 88 31.1 64 17.8 45 45 NNW 5 7 29.89 1012 10 16 0.00 0.00
6:53 pm 18:53 Mostly Sunny 81 27.2 68 20 65 65 Calm 29.90 1012 10 16 0.00 0.00
7:53 pm 19:53 Mostly Clear 72 22.2 70 21.1 94 94 Calm 29.91 1013 10 16 0.00 0.00
8:53 pm 20:53 Clear 71 21.7 69 20.6 94 94 Calm 29.91 1013 10 16 0.00 0.00
9:53 pm 21:53 Clear 69 20.6 69 20.6 100 100 Calm 29.92 1013 10 16 0.00 0.00
10:53 pm 22:53 Clear 69 20.6 68 20 96 96 Calm 29.93 1013 10 16 0.00 0.00
11:53 pm 23:53 Clear 68 20 68 20 100 100 Calm 29.92 1013 10 16 0.00 0.00

Powered by AerisWeather